User: anonymous   Login
Location: Unspecified
(0.0000°N, 0.0000°E)
Time: 12:30:38
(UTC+00:00)
Language:

Transit VE-3 - Orbit

View from above orbital plane
View from above orbital plane
View from above satellite
View from above satellite

Ground track
Ground track

The orbit data is extracted from the following two-line orbital elements,

1 00705U 63049C   21015.92028926  .00000025  00000-0  25916-4 0  9995
2 00705  89.9045  88.3541 0034074 183.0473 352.3399 13.47354788805784
Epoch (UTC): 15 January 2021 22:05:12
Eccentricity: 0.0034074
inclination: 89.9045°
perigee height: 1056 km
apogee height: 1107 km
right ascension of ascending node: 88.3541°
argument of perigee: 183.0473°
revolutions per day: 13.47354788
mean anomaly at epoch: 352.3399°
orbit number at epoch: 80578

The dashed part of the orbit path shows where the satellite is in the earth's shadow,  

DLR